Skip Page Navigation
NASA JPL Caltech
NASA Logo - Jet Propulsion Laboratory + View the NASA Portal
+ Center for Near-Earth Object Studies
JPL Home Earth Solar System Stars & Galaxies Technology
JPL Solar System Dynamics
BODIES ORBITS EPHEMERIDES TOOLS PHYSICAL DATA DISCOVERY FAQ SITE MAP
IMPORTANT: The SSD Announcement email list is now available. Major changes are coming in the near future, including possible hostname and/or URL changes. To be notified of such changes, subscribe to this email list.

Please visit this page for more details.


JPL Small-Body Database Browser
Search: [ help ]  
193053 (2000 FE39)
Classification: Main-belt Asteroid          SPK-ID: 2193053
Ephemeris | Orbit Diagram | Orbital Elements | Mission Design | Physical Parameters | Discovery Circumstances ]

[ show orbit diagram ]
Orbital Elements at Epoch 2458600.5 (2019-Apr-27.0) TDB
Reference: JPL 13 (heliocentric ecliptic J2000)
 Element Value Uncertainty (1-sigma)   Units 
e .09901509015063066 5.4692e-08  
a 2.221757024039702 1.1964e-08 au
q 2.001769552011614 1.2554e-07 au
i 5.625330128528747 5.247e-06 deg
node 48.05661557645018 5.6018e-05 deg
peri 97.12814661955123 6.3201e-05 deg
M 314.9411855248607 3.1939e-05 deg
tp 2458751.898136581750
(2019-Sep-25.39813658)
0.00010799 TDB
period 1209.604154132853
3.31
9.7705e-06
2.675e-08
d
yr
n .2976180255085835 2.404e-09 deg/d
Q 2.441744496067789 1.3149e-08 au
  Orbit Determination Parameters
   # obs. used (total)      419  
   data-arc span      6854 days (18.77 yr)  
   first obs. used      2000-03-29  
   last obs. used      2019-01-03  
   planetary ephem.      DE431  
   SB-pert. ephem.      SB431-N16  
   condition code      0  
   norm. resid. RMS      .5477  
   source      ORB  
   producer      Otto Matic  
   solution date      2019-Jul-13 11:43:08  

Additional Information
 Earth MOID = 1.02319 au 
 Jupiter MOID = 2.56499 au 
 T_jup = 3.636 
[ show covariance matrix ]

Ephemeris | Orbit Diagram | Orbital Elements | Mission Design | Physical Parameters | Discovery Circumstances ]

Physical Parameter Table
Parameter Symbol Value Units Sigma Reference Notes
absolute magnitude H 16.4   n/a MPO454339  
diameter diameter 1.637 km 0.284 urn:nasa:pds:neowise_diameters_albedos::2.0[mainbelt] (http://adsabs.harvard.edu/abs/2011ApJ...741...68M)  
geometric albedo albedo 0.199   0.045 urn:nasa:pds:neowise_diameters_albedos::2.0[mainbelt] (http://adsabs.harvard.edu/abs/2011ApJ...741...68M)  

193053 (2000 FE39)          Discovered 2000-Mar-29 by LINEAR at Socorro
Reference: 20081113/Numbers.arcLast Updated: 2008-11-17

Alternate Designations
 2000 FE39 = 2003 BN62 
Ephemeris | Orbit Diagram | Orbital Elements | Mission Design | Physical Parameters | Discovery Circumstances ]
ABOUT SSD CREDITS/AWARDS PRIVACY/COPYRIGHT GLOSSARY LINKS
FirstGov 2019-Oct-21 16:27 UT
(server date/time)  
NASA Home Page
Site Manager:   Ryan S. Park
Webmaster  Alan B. Chamberlin